Fernwood, MS

4:42 PM CST on December 02, 2016 (GMT -0600)
McComb-Pike County-Lewis

Weather History for KMCB - October, 2012

Change the Weather History Date:

Saturday, October 20, 2012

  Actual Average Record
Temperature  
Mean Temperature 61 °F -  
Max Temperature 80 °F 77 °F 89 °F (2004)
Min Temperature 43 °F 50 °F 27 °F (1989)
Degree Days  
Heating Degree Days 4    
Growing Degree Days 11 (Base 50)    
Moisture  
Dew Point 45 °F    
Average Humidity 66    
Maximum Humidity 97    
Minimum Humidity 22    
Precipitation  
Precipitation 0.00 in - - ()
Sea Level Pressure  
Sea Level Pressure 29.96 in    
Wind  
Wind Speed 0 mph (WSW)    
Max Wind Speed 6 mph    
Max Gust Speed -    
Visibility 10 miles    
Events      
Averages and records for this station are not official NWS values.
T = Trace of Precipitation, MM = Missing Value Source: NWS Daily Summary

Daily Weather History Graph

Daily Weather History Graph

Search for Another Location

Airport or City:

Trip Planner

Search our weather history database for the weather conditions in past years. The results will help you decide how hot, cold, wet, or windy it might be!

Date:

Astronomy

Oct. 20, 2012 Rise Set
Actual Time 7:08 AM CDT 6:24 PM CDT
Civil Twilight 6:44 AM CDT 6:48 PM CDT
Nautical Twilight 6:15 AM CDT 7:16 PM CDT
Astronomical Twilight 5:47 AM CDT 7:45 PM CDT
Moon 12:33 PM CDT (10/20) 11:20 PM CDT (10/20)
Length of Visible Light 12h 04m
Length of Day
11h 15m
Waxing Crescent, 34% of the Moon is Illuminated
Oct 20
Waxing Crescent
Oct 21
First Quarter
Oct 29
Full
Nov 6
Last Quarter
Nov 13
New

Hourly Weather History & Observations

Time (CDT) Temp. Dew Point Humidity Pressure Visibility Wind Dir Wind Speed Gust Speed Precip Events Conditions
12:53 AM 46.9 °F 45.0 °F 93% 29.93 in 10.0 mi Calm Calm - N/A   Clear
1:53 AM 46.9 °F 44.1 °F 90% 29.93 in 10.0 mi Calm Calm - N/A   Clear
2:53 AM 46.0 °F 43.0 °F 89% 29.93 in 10.0 mi Calm Calm - N/A   Clear
3:53 AM 45.0 °F 43.0 °F 93% 29.93 in 10.0 mi Calm Calm - N/A   Clear
4:53 AM 44.1 °F 42.1 °F 93% 29.94 in 10.0 mi Calm Calm - N/A   Clear
5:53 AM 44.1 °F 42.1 °F 93% 29.97 in 10.0 mi Calm Calm - N/A   Clear
6:53 AM 43.0 °F 42.1 °F 97% 29.97 in 10.0 mi Calm Calm - N/A   Clear
7:53 AM 45.0 °F 43.0 °F 93% 29.99 in 10.0 mi Calm Calm - N/A   Clear
8:53 AM 55.9 °F 50.0 °F 80% 30.00 in 10.0 mi Calm Calm - N/A   Clear
9:53 AM 64.9 °F 48.9 °F 56% 30.01 in 10.0 mi Calm Calm - N/A   Clear
10:53 AM 71.1 °F 44.1 °F 38% 30.01 in 10.0 mi Calm Calm - N/A   Clear
11:53 AM 73.9 °F 36.0 °F 25% 30.01 in 10.0 mi West 5.8 mph - N/A   Clear
12:53 PM 75.0 °F 34.0 °F 22% 29.99 in 10.0 mi Calm Calm - N/A   Clear
1:53 PM 77.0 °F 36.0 °F 23% 29.95 in 10.0 mi SSW 3.5 mph - N/A   Clear
2:53 PM 78.1 °F 37.9 °F 24% 29.93 in 10.0 mi WSW 3.5 mph - N/A   Clear
3:53 PM 79.0 °F 41.0 °F 26% 29.93 in 10.0 mi Calm Calm - N/A   Clear
4:53 PM 79.0 °F 39.9 °F 25% 29.93 in 10.0 mi Calm Calm - N/A   Clear
5:53 PM 73.9 °F 53.1 °F 48% 29.93 in 10.0 mi Calm Calm - N/A   Clear
6:53 PM 64.0 °F 54.0 °F 70% 29.95 in 10.0 mi Calm Calm - N/A   Clear
7:53 PM 61.0 °F 52.0 °F 72% 29.96 in 10.0 mi Calm Calm - N/A   Clear
8:53 PM 57.9 °F 52.0 °F 81% 29.96 in 10.0 mi Calm Calm - N/A   Clear
9:53 PM 57.0 °F 52.0 °F 83% 29.98 in 10.0 mi Calm Calm - N/A   Clear
10:53 PM 55.0 °F 51.1 °F 86% 29.98 in 10.0 mi Calm Calm - N/A   Clear
11:53 PM 53.1 °F 51.1 °F 93% 29.99 in 9.0 mi Calm Calm - N/A   Clear